N411AE SKAR-SKRG

Flight info

Callsign N411AE
Flight time 0h 27m
Altitude 17000
Route PEI3G PEI W3 ISVON ISVON4A
Aircraft A320/M-SDE3FGHIRWY/LB1

Departure

Time 2026-05-04 23:11
Airport El Eden Airport (SKAR)

Arrival

Time 2026-05-04 23:39
Airport Jose Maria Córdova International Airport (SKRG)
Time Latitude Longitude Altitude Speed Heading
2026-05-04 22:53 4.45284 -75.76748 3984 ft 0 kts 284°
2026-05-04 23:03 4.45284 -75.76747 3986 ft 2 kts 284°
2026-05-04 23:04 4.45276 -75.76723 3976 ft 4 kts 302°
2026-05-04 23:04 4.45259 -75.76706 3979 ft 4 kts 349°
2026-05-04 23:04 4.45247 -75.76705 3976 ft 0 kts 13°
2026-05-04 23:06 4.45256 -75.76703 3978 ft 4 kts 13°
2026-05-04 23:06 4.45304 -75.76692 3986 ft 10 kts 13°
2026-05-04 23:07 4.45342 -75.76670 3980 ft 0 kts 47°
2026-05-04 23:08 4.45349 -75.76662 3982 ft 7 kts 47°
2026-05-04 23:09 4.45409 -75.76595 3984 ft 15 kts 43°
2026-05-04 23:09 4.45505 -75.76554 3979 ft 18 kts 12°
2026-05-04 23:09 4.45647 -75.76519 3984 ft 26 kts 13°
2026-05-04 23:09 4.45835 -75.76473 3979 ft 28 kts 14°
2026-05-04 23:10 4.46023 -75.76428 3982 ft 28 kts 13°
2026-05-04 23:10 4.46149 -75.76419 3984 ft 10 kts 348°
2026-05-04 23:10 4.46151 -75.76403 3981 ft 4 kts 161°
2026-05-04 23:10 4.46123 -75.76404 3984 ft 0 kts 193°
2026-05-04 23:11 4.46075 -75.76416 3985 ft 30 kts 193°
2026-05-04 23:11 4.45593 -75.76532 3983 ft 108 kts 193°
2026-05-04 23:11 4.44648 -75.76761 3984 ft 168 kts 193°
2026-05-04 23:11 4.43508 -75.77039 4661 ft 168 kts 193°
2026-05-04 23:12 4.42374 -75.77313 5379 ft 167 kts 193°
2026-05-04 23:12 4.41247 -75.77582 5953 ft 167 kts 193°
2026-05-04 23:12 4.40117 -75.77849 6494 ft 167 kts 193°
2026-05-04 23:12 4.39024 -75.78225 6986 ft 168 kts 218°
2026-05-04 23:13 4.38309 -75.79140 7345 ft 176 kts 250°
2026-05-04 23:13 4.37879 -75.80368 7532 ft 198 kts 251°
2026-05-04 23:13 4.37405 -75.81729 7804 ft 213 kts 251°
2026-05-04 23:13 4.36913 -75.83128 8235 ft 217 kts 251°
2026-05-04 23:14 4.36409 -75.84560 8704 ft 219 kts 250°
2026-05-04 23:14 4.35901 -75.86001 9302 ft 220 kts 250°
2026-05-04 23:14 4.35386 -75.87451 9866 ft 222 kts 250°
2026-05-04 23:14 4.34864 -75.88918 10367 ft 225 kts 250°
2026-05-04 23:15 4.34335 -75.90403 10872 ft 228 kts 250°
2026-05-04 23:15 4.33987 -75.91981 11202 ft 241 kts 260°
2026-05-04 23:15 4.33713 -75.93729 11339 ft 266 kts 260°
2026-05-04 23:15 4.33439 -75.95643 11581 ft 290 kts 265°
2026-05-04 23:16 4.33717 -75.97710 11809 ft 313 kts 292°
2026-05-04 23:16 4.34989 -75.99548 12026 ft 335 kts 321°
2026-05-04 23:16 4.37095 -76.00632 12259 ft 351 kts 349°
2026-05-04 23:16 4.39499 -76.00610 12768 ft 354 kts 15°
2026-05-04 23:17 4.41851 -75.99846 13408 ft 357 kts 24°
2026-05-04 23:17 4.44138 -75.98841 14029 ft 360 kts 27°
2026-05-04 23:17 4.46393 -75.97734 14652 ft 362 kts 28°
2026-05-04 23:17 4.48657 -75.96610 15264 ft 364 kts 27°
2026-05-04 23:18 4.50952 -75.95508 15860 ft 367 kts 26°
2026-05-04 23:18 4.53287 -75.94434 16455 ft 371 kts 26°
2026-05-04 23:18 4.55655 -75.93385 16880 ft 374 kts 25°
2026-05-04 23:18 4.58040 -75.92352 16995 ft 373 kts 25°
2026-05-04 23:19 4.60423 -75.91325 17009 ft 372 kts 25°
2026-05-04 23:19 4.62770 -75.90314 17009 ft 372 kts 25°
2026-05-04 23:19 4.65149 -75.89287 17025 ft 372 kts 25°
2026-05-04 23:19 4.67528 -75.88255 17028 ft 372 kts 25°
2026-05-04 23:20 4.69898 -75.87223 17031 ft 372 kts 25°
2026-05-04 23:20 4.72268 -75.86188 17031 ft 372 kts 25°
2026-05-04 23:20 4.73870 -75.85488 17032 ft 372 kts 25°
2026-05-04 23:20 4.76207 -75.84466 17034 ft 371 kts 25°
2026-05-04 23:21 4.78581 -75.83439 17035 ft 372 kts 24°
2026-05-04 23:21 4.80995 -75.82501 17033 ft 372 kts 21°
2026-05-04 23:21 4.83468 -75.81631 17040 ft 372 kts 20°
2026-05-04 23:21 4.85888 -75.80821 17045 ft 372 kts 20°
2026-05-04 23:22 4.88347 -75.80008 17044 ft 371 kts 20°
2026-05-04 23:22 4.90797 -75.79192 17045 ft 371 kts 20°
2026-05-04 23:22 4.93241 -75.78363 17068 ft 371 kts 20°
2026-05-04 23:22 4.95682 -75.77519 17082 ft 371 kts 21°
2026-05-04 23:23 4.98123 -75.76663 17086 ft 371 kts 21°
2026-05-04 23:23 5.00561 -75.75801 17091 ft 371 kts 21°
2026-05-04 23:23 5.03001 -75.74942 17094 ft 372 kts 21°
2026-05-04 23:23 5.05443 -75.74087 17101 ft 372 kts 21°
2026-05-04 23:24 5.07889 -75.73235 17103 ft 372 kts 21°
2026-05-04 23:24 5.10333 -75.72382 17106 ft 372 kts 21°
2026-05-04 23:24 5.12779 -75.71527 17108 ft 372 kts 21°
2026-05-04 23:24 5.15225 -75.70671 17109 ft 372 kts 21°
2026-05-04 23:25 5.17666 -75.69819 17100 ft 371 kts 21°
2026-05-04 23:25 5.20107 -75.68970 17089 ft 371 kts 21°
2026-05-04 23:25 5.22546 -75.68124 17083 ft 371 kts 21°
2026-05-04 23:25 5.24988 -75.67275 17073 ft 371 kts 21°
2026-05-04 23:26 5.27428 -75.66424 17060 ft 371 kts 21°
2026-05-04 23:26 5.29864 -75.65573 17044 ft 371 kts 21°
2026-05-04 23:26 5.32304 -75.64721 17023 ft 371 kts 21°
2026-05-04 23:26 5.34740 -75.63870 17029 ft 371 kts 21°
2026-05-04 23:27 5.37147 -75.63030 17030 ft 371 kts 21°
2026-05-04 23:27 5.39589 -75.62178 17028 ft 371 kts 22°
2026-05-04 23:27 5.41922 -75.61101 17030 ft 369 kts 30°
2026-05-04 23:27 5.44192 -75.59896 17035 ft 370 kts 30°
2026-05-04 23:28 5.46466 -75.58689 17011 ft 370 kts 30°
2026-05-04 23:28 5.48742 -75.57483 17016 ft 370 kts 30°
2026-05-04 23:28 5.51015 -75.56281 17014 ft 369 kts 29°
2026-05-04 23:28 5.53272 -75.55089 17005 ft 360 kts 29°
2026-05-04 23:29 5.55443 -75.53945 17012 ft 343 kts 30°
2026-05-04 23:29 5.57475 -75.52876 17005 ft 317 kts 30°
2026-05-04 23:29 5.59365 -75.51879 16879 ft 297 kts 30°
2026-05-04 23:29 5.61132 -75.50943 16738 ft 278 kts 30°
2026-05-04 23:30 5.62805 -75.50053 16442 ft 268 kts 30°
2026-05-04 23:30 5.64439 -75.49183 16066 ft 264 kts 30°
2026-05-04 23:30 5.66053 -75.48322 15613 ft 261 kts 31°
2026-05-04 23:30 5.67657 -75.47469 15150 ft 260 kts 31°
2026-05-04 23:31 5.69256 -75.46620 14712 ft 259 kts 31°
2026-05-04 23:31 5.70845 -75.45777 14337 ft 257 kts 31°
2026-05-04 23:31 5.72428 -75.44936 14188 ft 258 kts 30°
2026-05-04 23:31 5.74027 -75.44087 14057 ft 259 kts 31°
2026-05-04 23:32 5.75626 -75.43240 13942 ft 260 kts 31°
2026-05-04 23:32 5.77253 -75.42511 13826 ft 260 kts 19°
2026-05-04 23:32 5.79059 -75.42195 13408 ft 272 kts
2026-05-04 23:32 5.80963 -75.42201 13121 ft 271 kts
2026-05-04 23:33 5.82821 -75.42212 12975 ft 264 kts
2026-05-04 23:33 5.84688 -75.42216 12400 ft 276 kts
2026-05-04 23:33 5.86603 -75.42152 12104 ft 275 kts
2026-05-04 23:33 5.88509 -75.42124 11783 ft 273 kts
2026-05-04 23:34 5.90402 -75.42138 11452 ft 271 kts
2026-05-04 23:34 5.92265 -75.42155 11126 ft 263 kts
2026-05-04 23:34 5.94058 -75.42168 10824 ft 253 kts
2026-05-04 23:34 5.95779 -75.42179 10528 ft 243 kts
2026-05-04 23:35 5.97430 -75.42189 10295 ft 229 kts
2026-05-04 23:35 5.98959 -75.42200 10005 ft 212 kts
2026-05-04 23:35 6.00369 -75.42209 9750 ft 194 kts
2026-05-04 23:35 6.01672 -75.42217 9508 ft 181 kts
2026-05-04 23:36 6.02905 -75.42225 9283 ft 175 kts
2026-05-04 23:36 6.04109 -75.42232 9069 ft 172 kts
2026-05-04 23:36 6.05302 -75.42240 8857 ft 170 kts
2026-05-04 23:36 6.06483 -75.42247 8648 ft 170 kts
2026-05-04 23:37 6.07663 -75.42255 8436 ft 169 kts
2026-05-04 23:37 6.08847 -75.42263 8217 ft 170 kts
2026-05-04 23:37 6.10027 -75.42270 8017 ft 169 kts
2026-05-04 23:37 6.11199 -75.42278 7776 ft 168 kts
2026-05-04 23:38 6.12364 -75.42286 7529 ft 167 kts
2026-05-04 23:38 6.13524 -75.42291 7300 ft 167 kts
2026-05-04 23:38 6.14685 -75.42301 7069 ft 166 kts 360°
2026-05-04 23:38 6.15775 -75.42308 6980 ft 142 kts 359°
2026-05-04 23:39 6.16586 -75.42314 6997 ft 91 kts 360°
2026-05-04 23:39 6.16943 -75.42338 7019 ft 31 kts 343°
2026-05-04 23:39 6.17095 -75.42403 7018 ft 16 kts 327°
2026-05-04 23:39 6.17189 -75.42463 7019 ft 11 kts 323°
2026-05-04 23:40 6.17195 -75.42525 7019 ft 8 kts 269°
2026-05-04 23:40 6.17173 -75.42609 7020 ft 18 kts 219°
2026-05-04 23:40 6.17100 -75.42626 7019 ft 3 kts 258°
2026-05-04 23:40 6.17103 -75.42665 7018 ft 7 kts 279°
2026-05-04 23:41 6.17106 -75.42685 7017 ft 0 kts 280°